AirNav   Pilot Hours Calculator
 
 846 users online  

0MU2 Christian Hospital Northeast Heliport
Florissant, Missouri, USA

GOING TO FLORISSANT?


FAA INFORMATION EFFECTIVE 26 MARCH 2020

Location

FAA Identifier: 0MU2
Lat/Long: 38-46-36.1100N 090-14-21.8400W
38-46.601833N 090-14.364000W
38.7766972,-90.2394000
(estimated)
Elevation: 554 ft. / 169 m (estimated)
Variation: 01E (1990)
From city: 3 miles E of FLORISSANT, MO
Time zone: UTC -5 (UTC -6 during Standard Time)
Zip code: 63136

Heliport Operations

Heliport use: Private use, MEDICAL USE.
Activation date: 08/1994
Control tower: no
ARTCC: KANSAS CITY CENTER
FSS: SAINT LOUIS FLIGHT SERVICE STATION
Attendance: UNATNDD
Segmented circle: no

Heliport Communications

WX ASOS at STL (6 nm W): 125.025 (314-890-4790)
WX AWOS-3 at ALN (11 nm NE): 128.0 (618-259-7231)
WX ASOS at SET (13 nm NW): 118.075 (636-250-4590)
WX ASOS at CPS (13 nm S): PHONE 618-332-0001

Nearby radio navigation aids

VOR radial/distance  VOR name  Freq  Var
STLr113/12.4ST LOUIS VORTAC117.4001E
TOYr275/15.2TROY VORTAC116.0004E
FTZr077/34.6FORISTELL VORTAC110.8005E

 
NDB name  Hdg/Dist  Freq  Var  ID
CIVIC MEMORIAL232/11.026301WCVM -.-. ...- --

Heliport Services

Runway Information

Helipad H2

Dimensions: 55 x 55 ft. / 17 x 17 m
Surface: asphalt
Latitude: 38-46.615333N
Longitude: 090-14.490833W
Elevation: 554.0 ft.
Traffic pattern: leftleft

Helipad H1

Dimensions: 20 x 20 ft. / 6 x 6 m
Surface: concrete
Operational restrictions: ROOFTOP.
Latitude: 38-46.601833N
Longitude: 090-14.364000W
Elevation: 554.0 ft.
Traffic pattern: leftleft

Heliport Ownership and Management from official FAA records

Ownership: Privately-owned
Owner: CHRISTIAN HOSPITAL NORTHEAST
11133 DUNN RD
ST LOUIS, MO 63136
Manager: RON MCMULLEN
11133 DUNN RD
ST LOUIS, MO 63136

Additional Remarks

A52-H1 100 FT BLDG 300 FT SOUTHEAST; 30 FT BLDG 400 FT NORTHEAST & 30 FT BLDG 225 FT EAST OF HELIPAD.
OWNER DESIRES ARPT NOT BE CHARTED.

Instrument Procedures

There are no published instrument procedures at 0MU2.

Some nearby airports with instrument procedures:

KSTL - St Louis Lambert International Airport (6 nm W)
KALN - St Louis Regional Airport (11 nm NE)
KSET - St Charles County Smartt Airport (13 nm NW)
1H0 - Creve Coeur Airport (13 nm W)
KCPS - St Louis Downtown Airport (13 nm S)
 
Loc | Ops | Rwys | IFR | FBO | Links
Com | Nav | Svcs | Stats | Notes

Kansas City Aviation Department
 
Area around 0MU2 (Christian Hospital Northeast Heliport)
 
Road maps at: MapQuest Bing Google
 
Aerial photo
No photo
 
Sectional chart

 
Airport distance calculator
Flying to Christian Hospital Northeast Heliport? Find the distance to fly.

From to 0MU2

Sunrise and sunset
Times for 06-Apr-2020
 Local
(UTC-5)
 Zulu
(UTC)
Morning civil twilight06:1011:10
Sunrise06:3711:37
Sunset19:2900:29
Evening civil twilight19:5600:56

Current date and time
Zulu (UTC)  07-Apr-2020 01:18:03
Local (UTC-5)  06-Apr-2020 20:18:03
 
METAR
KSTL 
6nm W 
070051Z 16005KT 10SM FEW055 FEW100 SCT250 22/12 A2990 RMK AO2 SLP121 ACC E T02220117
KALN 
12nm NE 
070050Z 13005KT 10SM SKC 18/14 A2991
KSET 
13nm NW 
070054Z AUTO 15003KT 10SM CLR 21/12 A2989 RMK AO2 SLP118 T02060117
KCPS 
13nm S 
070053Z 16006KT 10SM CLR 21/12 A2990 RMK AO2 SLP123 T02060122
TAF
KSTL 
6nm W 
070022Z 0700/0806 18008KT P6SM SCT250 FM070200 19007KT P6SM OVC040 FM071400 23012KT P6SM SCT045 FM080300 25007KT P6SM SCT040
KCPS 
13nm S 
070027Z 0700/0724 16005KT P6SM SCT250 FM070300 17005KT P6SM OVC040 FM071400 22009KT P6SM SCT045
NOTAMs
Click for the latest NOTAMs
NOTAMs are issued by the DoD/FAA and will open in a separate window not controlled by AirNav.

 

 
 

Would you like to see your business listed on this page?

 If your business provides an interesting product or service to pilots, flight crews, aircraft, or users of the Christian Hospital Northeast Heliport, you should consider listing it here.  To start the listing process, click on the button below
 
Add a business
 

Other Pages about Christian Hospital Northeast Heliport

Update a link
 
Copyright © AirNav, LLC. All rights reserved. Privacy Policy  Contact